Location: Rounton
(54.4000°N, 1.3500°W)
Time: 14:33:56
(UTC+00:00)

Transit 2A - Pass Details

Date: 08 December 2021
Orbit: 591 x 967 km, 66.7° (Epoch: 17 January)

Event Time Altitude Azimuth Distance (km) Brightness Sun altitude
Rises 08:26:54 0° 316° (NW) 3,663 8.8 0.7°
Reaches altitude 10° 08:29:43 10° 308° (NW) 2,716 8.2 1.0°
Maximum altitude 08:35:20 33° 247° (WSW) 1,538 7.4 1.5°
Drops below altitude 10° 08:40:46 10° 185° (S) 2,617 9.4 2.1°
Sets 08:43:26 0° 176° (S) 3,511 10.3 2.4°
